GFSGL_500_rhum_159.txt.gz
RH
20 16 24 38 44 45 48 48 49 48 56 58 54 59 61 64 65 24 17 16 24 17 17 21 22 19 24 37 54 46 56 62 63 32 25 45 73 76 66 82 91 89 86
32 20 19 17 21 34 37 46 49 50 49 51 55 64 70 74 66 59 32 18 22 20 17 17 18 21 21 25 34 43 58 56 62 47 44 49 53 65 76 86 96 96 88
46 52 58 37 30 48 54 30 26 32 47 60 67 66 65 67 70 71 59 48 32 22 23 23 21 24 22 24 32 34 51 57 56 43 49 52 56 76 81 92 77 88 90
24 32 57 55 50 56 63 59 64 76 71 47 45 59 63 66 68 65 61 58 58 50 38 29 33 32 29 27 29 35 44 52 49 38 43 48 45 51 68 76 68 76 77
22 20 22 18 26 27 46 66 77 90 94 95 86 56 70 61 64 70 67 59 59 61 64 58 43 42 50 48 38 35 37 42 48 44 43 50 50 51 49 58 62 62 64
19 13 13 16 18 47 62 59 33 44 55 68 44 91 78 94 90 70 67 58 60 67 61 66 61 57 51 53 48 45 41 41 52 49 49 50 42 44 44 44 48 60 60
16 16 40 99 63 70 58 59 50 43 40 40 40 50 57 81 91 83 93 95 86 80 80 65 63 67 65 51 46 47 48 46 50 48 45 53 45 51 43 46 55 55 62
36 46 64 75 56 60 61 61 56 44 36 35 39 36 30 34 39 56 74 89 96 96 96 78 67 66 69 67 64 50 49 48 51 54 46 46 50 42 37 42 56 58 64
62 85 62 51 47 44 39 32 20 8 10 8 7 9 10 10 18 28 37 43 48 61 80 83 76 82 92 76 70 63 51 52 45 39 37 35 40 56 61 58 60 71 66
69 59 50 41 26 21 19 16 11 17 20 21 21 18 8 6 8 10 12 15 15 19 35 34 40 53 54 72 77 77 73 82 87 90 80 69 63 72 82 80 77 61 62
47 35 27 23 22 20 18 14 15 18 19 22 21 18 19 16 13 8 7 9 12 14 14 14 17 29 51 85 93 82 79 84 88 90 92 96 91 86 92 94 89 81 85
29 26 24 22 22 21 18 18 16 17 12 9 9 10 8 6 8 13 13 10 8 7 10 12 14 17 43 85 97 96 92 94 87 96 96 94 97 97 97 96 97 97 96
29 27 25 24 21 14 12 14 14 14 11 11 7 5 5 5 4 3 4 8 10 11 11 8 8 13 17 76 96 95 94 82 85 86 95 92 96 96 97 96 96 96 97
26 27 26 22 17 12 12 12 13 15 14 12 9 8 6 6 5 4 3 3 3 5 8 16 15 8 9 18 34 44 43 51 61 71 92 96 96 96 96 96 96 96 96
28 27 21 18 12 9 15 22 23 19 13 10 7 5 4 3 2 3 4 3 3 4 6 10 14 18 12 9 12 20 34 37 47 51 66 74 75 86 83 97 97 96 96
26 22 17 12 8 27 28 29 17 11 8 5 3 4 4 6 4 4 3 3 4 8 10 20 25 28 24 25 16 10 11 22 36 48 62 55 95 83 85 96 95 75 96
24 16 5 13 27 36 32 16 10 7 8 12 13 12 12 17 17 22 25 17 28 34 27 32 32 36 31 29 32 23 21 35 41 52 60 60 54 57 97 94 96 97 96
18 8 8 18 33 34 22 10 10 21 24 23 20 17 14 16 23 29 44 39 29 39 55 51 46 40 43 50 42 36 29 46 63 72 66 65 69 89 81 96 97 98 99
10 8 4 22 38 30 13 11 17 32 33 28 24 17 12 14 21 30 52 63 82 67 75 71 69 73 84 80 65 51 73 81 67 54 54 96 95 91 98 98 94 93 79
9 5 6 29 30 19 10 15 26 40 41 33 32 22 14 12 13 34 50 67 65 76 72 88 90 88 97 95 74 92 95 80 64 89 100 99 96 93 74 64 66 55 42
6 6 9 24 22 17 12 19 28 45 45 39 34 33 26 19 16 18 42 75 80 81 79 96 96 96 96 96 96 92 89 86 100 98 94 72 39 24 18 12 11 16 18
6 5 8 14 17 13 18 21 25 36 40 43 34 34 26 20 19 42 56 65 85 95 88 68 78 89 94 92 83 87 88 72 57 51 53 52 42 35 33 25 16 22 23
7 6 7 14 14 17 16 23 27 35 43 44 39 33 25 17 15 13 34 41 30 22 19 16 13 10 10 9 11 13 15 14 15 18 20 19 18 18 20 25 29 25 23
9 27 25 15 16 14 17 23 29 38 36 38 44 37 26 17 13 15 10 9 8 7 7 7 6 6 6 7 7 8 10 11 15 19 21 24 26 36 38 33 28 27 26
48 37 13 12 8 9 11 16 19 24 26 29 40 41 25 15 10 11 15 9 6 7 7 7 7 6 6 7 8 11 16 24 27 27 27 26 20 19 24 25 24 21 19
16 14 10 5 7 10 10 9 10 11 17 18 19 19 13 10 10 10 11 11 9 8 7 8 8 8 7 7 9 17 22 28 32 33 31 25 21 20 20 19 18 17 18

GFSGL_500_rhum_162.txt.gz
RH
30 45 39 43 49 49 52 48 41 42 50 54 54 57 61 60 63 62 50 19 23 30 18 18 22 20 22 22 23 42 44 50 51 61 64 38 25 31 54 67 66 84 94
64 40 50 33 33 50 50 49 47 44 41 43 43 46 53 53 58 65 66 60 56 28 30 25 20 17 20 20 20 23 29 37 54 57 64 53 46 44 48 58 70 95 87
96 71 67 70 72 24 19 30 35 35 35 40 46 59 65 66 62 64 70 78 69 59 41 34 42 24 18 17 20 24 24 32 40 56 59 54 48 50 50 57 67 80 75
63 60 53 45 63 51 23 32 38 46 53 52 55 80 59 45 61 69 66 67 72 68 64 45 36 32 26 26 21 29 28 29 33 48 54 52 44 47 51 47 62 72 58
55 51 43 40 96 54 43 36 40 47 56 63 78 71 83 77 50 54 62 56 61 68 72 67 64 60 37 32 32 34 37 42 38 42 46 49 50 48 51 51 64 64 65
44 40 31 23 23 33 42 38 45 53 32 32 36 48 55 59 82 73 78 76 51 52 60 59 57 58 56 60 60 49 47 52 51 44 49 52 56 49 51 54 62 66 66
44 35 30 25 36 46 72 87 64 56 49 48 47 46 45 42 49 54 47 82 61 56 60 62 59 60 66 62 62 58 60 61 62 56 53 56 57 59 53 65 72 66 62
45 33 31 28 47 68 82 78 56 51 52 41 24 11 12 22 35 36 30 41 55 77 75 78 82 65 61 69 70 68 62 67 61 54 57 57 54 63 63 54 54 59 54
76 42 19 35 86 99 88 54 41 33 22 15 13 18 19 19 10 7 9 10 14 32 46 54 69 96 96 91 80 67 72 82 86 75 64 55 54 55 54 57 60 53 58
72 29 36 72 95 80 61 30 23 21 18 13 16 17 19 20 19 14 10 6 6 9 11 15 25 40 66 80 77 63 74 86 92 81 85 73 70 75 83 88 94 95 88
61 50 77 92 82 59 27 25 24 21 16 13 14 15 10 9 9 9 9 9 10 9 6 9 13 14 16 19 32 38 44 53 72 81 87 88 94 92 97 96 97 97 97
100 85 78 64 36 28 26 25 22 15 12 12 12 12 12 12 8 5 4 4 4 6 10 12 9 8 12 14 14 19 34 53 66 94 96 96 96 96 96 96 96 97 96
92 71 42 29 27 26 25 22 15 12 12 12 13 13 13 11 8 6 5 4 3 3 3 4 10 12 8 8 9 12 20 39 80 96 96 96 96 95 94 96 97 95 97
63 33 30 26 23 25 23 18 12 10 14 19 18 15 11 8 6 3 3 3 3 4 4 4 4 7 13 12 9 8 11 33 59 98 98 96 85 72 84 84 95 92 96
31 28 26 25 26 23 18 14 11 24 28 21 12 9 5 4 3 2 3 4 4 3 2 3 4 8 12 20 18 15 10 13 66 60 56 55 58 59 65 68 75 77 89
27 27 26 27 22 15 7 19 34 36 20 13 8 4 8 10 7 11 11 12 14 15 17 10 12 18 26 29 27 25 21 15 16 26 37 36 38 40 55 58 65 78 94
31 30 28 22 9 8 23 41 38 23 14 8 7 6 12 13 9 8 9 15 19 25 30 30 24 32 33 31 38 52 39 32 31 33 24 23 18 32 46 74 55 57 68
28 28 27 14 8 17 36 39 30 15 10 12 12 13 11 12 9 9 22 19 25 37 86 59 37 43 51 59 56 56 51 42 43 44 37 32 33 49 57 66 66 75 80
25 28 22 10 7 15 37 40 21 12 11 15 24 17 10 7 8 8 12 23 42 54 64 81 77 76 69 84 86 70 70 62 64 60 52 49 72 72 69 87 84 92 98
21 24 16 8 5 20 39 32 18 12 14 27 32 23 17 10 8 7 11 26 50 58 46 63 65 70 98 93 93 90 94 96 92 74 84 80 76 94 97 98 94 92 73
28 21 13 6 6 18 35 25 14 13 20 28 28 22 25 20 16 14 16 15 22 40 64 69 59 68 81 95 96 96 91 94 97 95 97 95 97 96 90 44 18 13 14
27 15 8 7 7 22 23 17 13 18 21 21 22 30 31 26 18 16 22 30 39 45 46 50 53 65 80 91 95 96 98 96 91 76 65 50 53 59 58 55 52 50 33
16 9 8 7 8 16 16 14 15 16 19 20 21 29 34 30 18 12 10 18 19 19 20 16 16 22 23 15 12 16 31 32 26 22 19 19 20 20 21 23 24 29 27
9 43 9 17 14 16 13 14 12 13 15 17 23 27 29 34 21 12 11 7 6 6 6 5 6 6 6 6 7 8 8 11 15 19 21 22 22 22 22 27 34 34 33
22 9 10 69 65 18 12 7 10 10 10 14 20 24 30 36 26 13 11 11 9 7 6 6 6 6 6 6 6 8 14 18 21 25 27 28 27 24 18 18 19 27 28
9 13 67 76 36 13 6 8 10 12 11 9 12 12 15 18 17 14 12 10 10 10 8 8 7 7 7 7 7 7 10 18 20 23 30 31 31 30 27 24 24 25 27

GFSGL_500_rhum_165.txt.gz
RH
79 41 25 32 42 46 48 47 41 36 38 45 44 48 55 62 65 66 59 53 56 35 24 19 19 22 31 37 36 35 42 57 68 53 50 58 65 60 38 37 56 65 77
73 53 36 49 41 32 40 45 45 41 38 41 46 49 47 46 46 50 53 56 58 63 53 48 34 29 23 29 20 23 30 39 49 47 44 64 65 63 47 49 54 57 78
46 64 79 66 58 44 32 24 26 37 36 42 44 41 38 39 47 55 54 46 49 58 71 66 60 35 32 29 28 21 21 29 40 47 50 46 57 67 52 46 51 57 71
57 58 87 81 74 58 63 51 30 31 49 41 30 44 56 72 82 92 49 58 62 59 61 69 68 58 55 38 42 45 26 27 28 34 40 42 44 64 58 48 48 65 72
75 59 52 57 56 44 41 68 43 31 39 52 54 65 75 77 70 74 70 68 47 54 58 61 64 70 64 54 39 40 43 43 40 37 42 46 43 46 50 52 51 56 66
67 77 42 52 38 29 48 53 48 41 38 44 48 32 42 43 47 45 45 68 63 62 76 81 58 58 66 66 65 60 54 44 50 51 45 53 58 49 47 55 60 59 67
64 75 52 32 27 23 23 21 35 41 56 52 50 48 52 44 30 31 34 37 46 59 46 65 86 51 52 59 60 56 52 54 59 66 60 58 64 62 52 57 64 64 63
80 89 64 42 34 39 33 37 46 76 65 52 46 33 20 13 10 12 10 8 17 28 26 48 71 77 80 65 63 69 59 58 61 63 60 65 68 65 65 64 65 63 65
94 100 63 53 40 46 29 49 82 75 53 35 20 15 14 12 14 14 14 14 10 7 8 10 15 34 58 82 81 63 80 63 66 72 68 67 74 73 62 63 61 58 62
48 63 77 77 55 24 38 90 85 48 27 18 15 15 14 12 14 15 12 9 8 6 6 6 7 10 16 28 40 45 88 80 92 90 73 68 84 91 95 94 80 70 75
76 83 83 74 61 46 75 87 50 31 22 17 16 15 10 10 11 11 10 8 8 8 7 8 9 6 6 10 12 18 31 58 84 71 68 59 74 72 82 92 96 95 97
100 91 95 91 62 93 80 66 40 25 19 19 15 12 10 9 9 9 8 8 7 4 4 4 4 6 9 8 6 8 13 14 15 37 47 50 69 92 97 96 97 96 96
98 96 94 95 93 82 66 35 26 23 22 18 15 11 9 8 8 7 5 7 7 6 5 5 4 4 3 5 12 12 8 8 12 13 18 32 38 76 93 96 96 97 95
96 96 98 84 78 43 30 23 24 25 18 17 10 9 12 13 11 9 6 3 2 2 2 2 2 3 5 4 4 10 15 15 11 10 28 35 43 49 80 95 94 92 83
94 90 81 47 32 27 22 25 24 21 15 8 14 18 16 10 7 3 2 2 2 6 7 8 11 8 6 4 6 9 14 21 22 19 16 20 34 68 96 66 53 62 61
87 64 35 28 24 24 25 23 19 7 9 12 19 19 15 5 4 4 6 5 5 6 8 9 11 15 17 12 12 12 20 24 24 23 20 20 21 24 51 55 34 24 27
27 26 26 27 27 27 23 14 7 11 14 20 22 15 7 4 5 5 7 7 6 6 8 11 18 19 9 15 30 38 37 35 34 36 38 36 37 35 40 45 42 31 34
26 26 26 29 28 26 20 9 9 12 19 22 15 8 4 4 5 4 5 6 6 6 13 17 27 50 42 40 50 48 47 44 49 63 63 58 58 61 48 40 35 41 58
23 25 26 26 28 27 15 8 8 15 23 18 10 6 6 6 6 4 4 5 9 15 30 28 27 42 49 69 70 85 83 79 79 79 76 60 48 53 55 49 61 76 79
15 15 19 20 23 23 13 7 9 15 19 13 8 8 12 12 11 8 7 6 8 14 29 43 52 47 55 88 84 97 90 89 91 92 96 98 88 74 84 82 87 100 96
22 17 14 15 17 20 14 7 9 13 15 9 9 13 18 18 19 12 11 10 9 9 14 26 35 47 63 84 90 86 88 85 96 99 98 98 98 98 97 98 95 97 86
24 21 20 22 22 20 12 8 7 8 10 7 11 15 21 25 27 16 12 12 11 12 12 12 13 23 41 59 69 75 87 86 95 93 93 81 71 57 43 45 44 42 46
29 27 26 27 23 14 7 6 5 6 8 7 10 15 20 28 35 24 14 10 7 9 10 8 7 6 8 10 11 11 11 12 14 17 20 23 24 25 26 26 25 23 27
34 29 22 18 11 7 6 5 6 7 7 6 10 14 20 30 34 32 17 12 9 6 7 7 6 6 6 5 6 6 7 10 14 16 19 20 21 20 17 15 17 24 33
15 13 9 12 19 7 16 21 11 8 6 8 11 14 17 24 32 32 22 13 11 11 9 8 8 7 6 6 6 7 7 11 16 17 19 22 25 24 23 22 21 19 18
14 11 14 21 12 28 60 36 10 6 8 10 10 11 12 12 14 15 14 13 11 10 10 10 9 9 8 8 7 7 7 6 7 10 16 19 19 18 18 21 24 26 26

GFSGL_500_rhum_168.txt.gz
RH
47 60 68 25 32 38 40 40 41 40 37 42 47 53 54 51 52 57 59 57 61 57 44 32 16 20 26 27 30 36 43 43 46 49 65 54 54 62 72 70 52 42 46
53 92 76 47 32 34 38 36 38 38 36 36 35 38 42 41 38 39 42 45 49 55 55 62 57 47 33 25 29 27 33 25 24 33 40 49 46 53 77 66 58 49 55
49 57 49 60 41 45 45 33 26 39 40 41 43 40 38 37 38 38 41 45 47 49 50 52 54 59 59 54 39 26 30 30 21 21 25 36 44 50 62 66 64 52 49
57 62 60 45 62 56 45 60 65 40 17 20 34 37 28 25 36 42 67 73 77 51 52 53 52 51 64 65 63 51 36 31 32 26 21 25 31 38 53 53 57 61 51
50 50 63 52 42 55 61 51 44 57 47 25 29 36 45 52 58 59 62 65 57 52 60 48 52 57 57 60 66 66 60 60 41 40 41 33 33 42 44 48 47 44 50
41 45 46 70 48 42 52 42 41 50 52 40 35 37 48 45 37 44 42 42 41 42 41 48 49 43 64 69 62 57 61 64 66 49 47 51 48 44 47 54 55 58 50
55 59 57 64 60 47 42 24 53 54 61 37 37 52 55 53 49 43 24 15 10 9 13 30 49 58 67 44 72 60 50 57 59 62 60 57 56 54 59 61 61 64 66
49 59 62 56 70 46 35 21 20 27 36 34 66 67 64 49 26 18 15 12 12 13 11 8 11 25 26 30 77 67 48 48 50 54 56 58 58 61 65 69 68 70 73
50 39 51 71 81 62 38 35 34 32 40 49 61 68 49 20 17 16 14 12 11 12 10 8 8 7 7 7 11 24 37 75 66 72 78 77 70 74 84 86 81 78 86
41 36 38 92 95 66 44 40 50 34 62 72 55 38 20 15 16 16 12 10 10 11 10 9 8 8 8 5 5 6 14 39 62 78 75 94 81 77 85 88 80 88 95
34 31 33 35 59 82 86 72 31 29 71 66 44 21 15 16 17 14 11 9 8 9 9 8 7 6 6 6 6 5 5 8 11 25 42 91 97 92 96 95 87 84 89
26 25 30 49 75 85 95 79 32 45 73 59 27 16 14 19 15 13 10 8 8 8 7 6 6 6 5 4 3 4 6 8 7 10 16 31 67 78 81 69 56 50 67
28 34 48 53 93 96 96 69 50 68 64 34 21 16 18 16 14 9 7 9 9 8 7 7 6 2 2 2 2 5 4 4 5 11 15 9 17 17 15 14 21 29 43
38 38 56 95 100 99 96 56 87 65 34 24 17 19 17 13 12 13 13 11 11 9 4 1 1 2 3 5 5 4 3 4 6 6 14 28 31 24 17 26 39 47 49
59 86 88 94 97 95 91 81 60 33 24 19 21 19 10 16 19 18 14 11 5 2 1 2 4 5 7 7 9 14 14 12 9 8 13 26 34 38 58 41 28 35 60
41 75 91 96 96 91 78 59 32 22 23 22 14 8 13 21 18 11 6 3 2 2 3 5 5 6 7 8 12 16 17 8 13 26 29 41 42 45 32 27 25 26 28
29 34 71 80 47 32 25 24 26 25 23 9 10 14 19 18 8 5 4 3 2 2 2 3 3 6 9 12 17 12 8 9 20 41 47 46 32 29 48 52 46 47 60
30 29 28 26 25 22 23 25 26 25 12 10 13 18 17 11 5 4 4 3 2 2 3 7 13 19 16 14 17 22 26 34 37 44 49 47 51 74 79 72 61 58 48
26 24 26 26 24 26 26 24 26 22 10 9 16 16 11 6 6 6 5 4 3 3 3 4 10 27 29 35 37 48 66 77 73 64 76 88 91 90 80 67 62 65 76
24 21 19 22 24 24 25 25 25 18 8 10 14 11 8 6 11 9 8 6 6 5 5 7 11 23 35 38 37 56 85 86 85 94 96 95 94 92 91 80 76 83 87
27 32 25 20 20 18 18 18 20 17 8 9 10 7 6 8 14 17 14 9 9 10 9 8 8 10 14 27 56 72 79 76 80 92 86 82 83 82 84 81 82 86 91
33 31 29 26 24 23 24 20 18 16 8 9 7 7 7 10 15 17 17 13 10 10 12 10 9 8 9 10 12 14 12 15 18 22 28 30 27 30 39 51 44 39 39
37 32 28 26 27 29 30 26 21 15 8 9 7 8 8 13 16 16 15 18 13 10 9 9 8 7 6 7 7 6 4 4 5 8 12 16 19 19 20 21 23 25 24
38 36 35 35 34 30 27 24 15 8 7 6 7 8 9 12 16 15 16 20 16 12 10 8 8 7 7 6 7 6 5 9 10 11 11 11 11 14 16 16 15 16 20
40 27 24 23 20 14 12 14 10 9 8 10 10 8 10 11 13 14 18 22 18 13 11 9 8 8 7 7 7 7 7 6 7 10 14 15 17 18 17 16 18 19 20
36 22 16 13 12 12 16 20 11 30 52 18 9 8 11 10 10 10 13 14 12 11 9 8 7 6 6 6 6 5 6 7 7 7 8 9 13 16 17 17 17 17 16